THOR ABLESTAR DEB, 122

Orbit data source: Space-Track

THOR ABLESTAR DEB, 122 is space debris in LEO originally from a launch on Thu, 29 Jun 1961 UTC launched from the Air Force Eastern Test Range (AFETR). Debris objects in space refer to the collection of defunct objects orbiting the Earth. Examples of debris include non-operational satellites, rocket bodies, and fragments generated from explosions, collisions, or faulty payload assembly.

Loading next visibility...
Identifier
122, 1961-015G
Orbit
LEO
Country
Flag of USUS
Related business
Manufacturer
Unknown
Mission
Spacecraft
Bus & Motor
Unknown
Mass
Unknown
Launch date (UTC)
1961-06-29 (65 years ago)
Launch vehicle
Unknown
Launch site
Air Force Eastern Test Range (AFETR)
Object type
Payload
Rocket body
Debris
Shape & HBR
Unknown shape, 0.5 m
Radar Cross Section
Medium (>0.1 m² and <1 m²)

Expand to show TLE details & history
Last TLE update: 5 hours ago

TLE from 5 hours ago
0 THOR ABLESTAR DEB
1 00122U 61015G   26118.93839666  .00008446  00000-0  66845-3 0  9990
2 00122  66.7413 327.1374 0044215 246.4444 113.2043 15.00310795386883
Epoch: 2026-04-28T22:31Z
TLE epoch observation values (Epoch: 2026-04-28T22:31:17.471Z)
Latitude
-0.00001°
Longitude
132.40807°
Altitude
580.329 km
Speed
7.564 km/s
True Right ascension
21h 48m 32s
True Declination
0° 00' 00"
Sunlit
Object was in daylight at epoch
Visualization orbit readout
Latitude
Unknown
Longitude
Unknown
Altitude
Unknown
Speed
Unknown
Apparent Right ascension
Unknown
Apparent Declination
Unknown
Sunlit
N/A
Visualization observer readout
Local Sidereal Time
11:19:11
Azimuth
Unknown
Elevation
Unknown
Doppler factor
Unknown
Orbital elements
Apogee altitude
594.95 km
Perigee altitude
533.558 km
Semi-major axis
6,942.391 km
Eccentricity
0.00442
Inclination
66.7413°
RAAN
327.1374°
Arg. of periapsis
246.4444°
True anomaly
113.66896°
Mean anomaly
113.2043°
Eccentric anomaly
113.43673°
Mean motion
3.75214 °/min
Orbital period
95.95 mins
BSTAR
0.00066845
Loading maneuver chart data...
Computing Atmospheric mass density...
Loading historical data...
Loading historical data...
Loading historical data...
Loading historical data...
Loading historical data...
Loading historical data...
Loading historical data...

Documentation

Showing up to 5 results
|